Printer-friendly version

IAU Minor Planet Center

Minor Planet Center

MPEC 2006-U71 : 2006 UF185

The following Minor Planet Electronic Circular may be linked-to from your own Web pages, but must not otherwise be redistributed electronically.


Read MPEC 2006-U70 Read MPEC 2006-U72


M.P.E.C. 2006-U71                                Issued 2006 Oct. 29, 16:04 UT

     The Minor Planet Electronic Circulars contain information on unusual
         minor planets and routine data on comets.  They are published
   on behalf of Commission 20 of the International Astronomical Union by the
          Minor Planet Center, Smithsonian Astrophysical Observatory,
                          Cambridge, MA 02138, U.S.A.

             Prepared using the Tamkin Foundation Computer Network

                              MPC@CFA.HARVARD.EDU
          URL http://cfa-www.harvard.edu/iau/mpc.html  ISSN 1523-6714

                                  2006 UF185

Observations:
     K06UI5F* C2006 10 27.44634 04 10 21.75 +24 29 18.1          20.8 V EU071691
     K06UI5F  C2006 10 27.46379 04 10 20.83 +24 27 59.4          20.5 V EU071691
     K06UI5F  C2006 10 27.48130 04 10 19.91 +24 26 40.4          20.5 V EU071691
     K06UI5F tC2006 10 27.51483 04 10 18.17 +24 24 08.3          20.8 V EU071291
     K06UI5F tC2006 10 27.51901 04 10 18.00 +24 23 49.9          20.7 V EU071291
     K06UI5F tC2006 10 27.52320 04 10 17.78 +24 23 30.9          20.9 V EU071291
     K06UI5F  C2006 10 28.21188 04 09 49.52 +23 29 56.9          20.5 R EU071651
     K06UI5F  C2006 10 28.21410 04 09 49.55 +23 29 47.3          20.5 R EU071651
     K06UI5F  C2006 10 28.21632 04 09 49.38 +23 29 38.5          20.9 R EU071651
     K06UI5F tC2006 10 28.22215 04 09 49.02 +23 29 08.8          20.5 V EU071291
     K06UI5F tC2006 10 28.22614 04 09 48.79 +23 28 50.0          20.9 V EU071291
     K06UI5F tC2006 10 28.23015 04 09 48.63 +23 28 30.9          20.7 V EU071291
     K06UI5F  C2006 10 28.33899 04 09 42.19 +23 19 45.4          19.5 V EU071G96
     K06UI5F  C2006 10 28.34917 04 09 41.61 +23 18 56.0          19.9 V EU071G96
     K06UI5F  C2006 10 28.35962 04 09 40.96 +23 18 05.1          20.1 V EU071G96
     K06UI5F  C2006 10 28.40145 04 09 38.04 +23 14 34.9          20.5 R EU071734
     K06UI5F  C2006 10 28.41067 04 09 37.35 +23 13 51.5          20.8 R EU071734
     K06UI5F  C2006 10 28.41528 04 09 37.17 +23 13 28.1          20.2 R EU071734
     K06UI5F  C2006 10 28.98362 04 09 09.63 +22 25 36.6          20.4 V EU071941
     K06UI5F  C2006 10 28.98542 04 09 09.53 +22 25 27.3          20.6 V EU071941
     K06UI5F  C2006 10 28.98765 04 09 09.39 +22 25 15.7          20.5 V EU071941
     K06UI5F  C2006 10 28.98826 04 09 09.35 +22 25 12.7          20.3 V EU071941
     K06UI5F  C2006 10 28.98861 04 09 09.34 +22 25 10.9          20.5 V EU071941
     K06UI5F  C2006 10 28.98961 04 09 09.28 +22 25 05.8          20.5 V EU071941
     K06UI5F  C2006 10 29.22822 04 08 56.94 +22 04 13.4          19.4 V EU071G96
     K06UI5F  C2006 10 29.23381 04 08 56.61 +22 03 44.3          19.2 V EU071G96
     K06UI5F  C2006 10 29.23822 04 08 56.32 +22 03 20.9          19.2 V EU071G96
     K06UI5F  C2006 10 29.24259 04 08 56.04 +22 02 57.8          19.2 V EU071G96
     K06UI5F tC2006 10 29.24500 04 08 55.90 +22 02 45.8          21.1 V EU071291
     K06UI5F tC2006 10 29.25003 04 08 55.54 +22 02 19.2          20.3 V EU071291
     K06UI5F tC2006 10 29.25392 04 08 55.34 +22 01 58.6          20.0 V EU071291
     K06UI5F  C2006 10 29.33031 04 08 49.68 +21 55 09.8          20.0 R EU071734
     K06UI5F  C2006 10 29.33339 04 08 49.50 +21 54 50.8          20.3 R EU071734
     K06UI5F  C2006 10 29.33674 04 08 49.24 +21 54 34.4          20.2 R EU071734
     K06UI5F  C2006 10 29.33982 04 08 49.07 +21 54 18.1          19.9 R EU071734
     K06UI5F  C2006 10 29.37111 04 08 47.40 +21 51 33.4          19.3 V EU071G96
     K06UI5F  C2006 10 29.37234 04 08 47.32 +21 51 26.9          19.2 V EU071G96
     K06UI5F  C2006 10 29.37357 04 08 47.25 +21 51 20.1          19.2 V EU071G96

Observer details:
291 LPL/Spacewatch II.  Observers R. S. McMillan, M. T. Read.  1.8-m f/2.7
    reflector + CCD.
651 Grasslands Observatory, Tucson.  Observer J. E. McGaha.  0.62-m f/5.1
    Newtonian reflector + CCD.
691 Steward Observatory, Kitt Peak.  Observer R. S. McMillan.  0.9-m f/3
    reflector + CCD.
734 Farpoint Observatory.  Observer G. Hug.  0.7-m reflector + CCD.
941 Observatorio Pla D'Arguines.  Observers R. Ferrando, M. Ferrando.
    Measurer R. Ferrando.  0.36-m f/10 Schmidt-Cassegrain + CCD.
G96 Mt. Lemmon Survey.  Observer A. R. Gibbs.  Measurers E. C. Beshore,
    E. J. Christensen, G. J. Garradd, A. R. Gibbs, A. D. Grauer, R. E. Hill,
    R. A. Kowalski, S. M. Larson, R. H. McNaught.  1.5-m reflector + CCD.

Orbital elements:
2006 UF185                                               Earth MOID = 0.1313 AU
Epoch 2006 Sept. 22.0 TT = JDT 2454000.5                MPC
M 276.71812              (2000.0)            P               Q
n   0.72692457     Peri.  307.33426     -0.89341491     -0.25421728
a   1.2250199      Node   221.93059     +0.25520816     -0.96573117
e   0.6034968      Incl.   33.66076     -0.36970069     -0.05231520
P   1.36           H   21.5           G   0.15           U   9
Residuals in seconds of arc
061027 691  0.4-  0.6-    061028 G96  0.0   0.7-    061029 G96  0.1+  0.2-
061027 691  0.2-  0.6-    061028 G96  0.2-  0.6-    061029 G96  0.1+  0.2-
061027 691  0.2-  0.3-    061028 734  0.7+  1.9-    061029 291  0.1-  0.3+
061027 291  0.2-  0.0     061028 734  1.2-  0.2+    061029 291  0.6-  0.3+
061027 291  0.4+  0.6+    061028 734  0.1+  0.5-    061029 291  0.1+  0.2+
061027 291  0.3+  0.7+    061028 941  0.2-  0.9-    061029 734  0.1-  0.9+
061028 651  0.7-  0.8-    061028 941  0.0   0.9-    061029 734  0.3+  1.6-
061028 651  1.4+  0.2+    061028 941  0.0   1.0-    061029 734  0.2-  0.0
061028 651  0.7+  1.9+    061028 941  0.0   0.8-    061029 734  0.4+  0.3+
061028 291  0.1-  0.3+    061028 941  0.2+  0.8-    061029 G96  0.1+  0.4+
061028 291  0.3-  0.5+    061028 941  0.2+  0.8-    061029 G96  0.2+  0.5+
061028 291  0.6+  0.6+    061029 G96  0.1-  0.4-    061029 G96  0.4+  0.4+
061028 G96  0.5-  0.8-    061029 G96  0.2+  0.0

Ephemeris:
2006 UF185               a,e,i = 1.23, 0.60, 34                  q = 0.4857
Date    TT    R. A. (2000) Decl.     Delta      r     Elong.  Phase     V
2006 10 22    04 12.72   +29 49.7    0.367    1.301   140.9    28.9    21.2
2006 10 27    04 10.68   +25 02.1    0.298    1.256   147.8    25.0    20.5
2006 11 01    04 05.82   +17 21.7    0.234    1.209   155.3    20.1    19.8
2006 11 06    03 56.76   +04 33.2    0.180    1.161   158.8    18.0    19.0
2006 11 11    03 40.60   -16 27.4    0.143    1.111   145.0    30.7    18.8
2006 11 16    03 10.15   -43 56.8    0.136    1.059   117.4    56.1    19.3
2006 11 21    02 03.61   -66 43.8    0.161    1.005    91.4    79.4    20.3
2006 11 26    23 21.77   -77 48.4    0.204    0.949    73.5    94.6    21.3
2006 12 01    20 07.82   -77 20.2    0.256    0.893    61.5   103.9    22.1

Gareth V. Williams           (C) Copyright 2006 MPC           M.P.E.C. 2006-U71

Read MPEC 2006-U70 Read MPEC 2006-U72


Our Web policy. Index to the CBAT/MPC/ICQ pages.


Valid HTML 4.01!